Theta_e
324 324 323 322 323 323 322 321 322 322 321 319 318 318 317 315 316 318 318 319 320 319 318 318 318 318 317 317 317 318 318 318 318 317 316 316 316 316 315 314 313 313 314 314 313 314 312 311 312 312 315 313 313 314 313 313 314 314 313 311 310 311 310 308 305 304 305 305 303 300 302 304 301 303 303 305 306 306 305 307 308 307 307 308 308
323 323 322 323 323 323 323 323 323 322 320 319 319 319 318 317 316 316 317 319 320 318 318 319 318 317 317 316 316 316 316 316 317 317 315 317 317 317 317 314 313 313 315 312 314 314 315 311 310 311 313 311 313 309 310 310 309 309 309 310 308 308 311 306 304 304 302 303 301 302 301 304 301 302 304 305 305 306 304 305 305 305 305 307 307
322 323 322 322 322 323 324 323 322 322 320 319 319 319 319 318 317 316 317 317 318 320 319 318 317 317 316 316 315 316 316 316 317 316 316 316 316 318 318 316 315 314 314 313 311 313 313 313 312 313 313 313 313 312 312 310 309 308 309 309 308 306 305 306 305 303 303 300 303 301 302 302 302 301 302 304 305 304 303 304 304 304 304 305 306
321 322 322 322 323 323 323 323 322 321 319 319 319 320 319 319 318 317 317 317 316 319 318 317 316 316 316 315 315 315 316 317 316 315 315 315 315 315 316 317 316 316 315 313 312 313 313 312 313 314 313 312 312 312 312 312 311 309 310 309 308 305 306 307 308 307 305 302 301 300 301 303 301 302 302 303 303 303 303 304 304 304 304 304 304
321 320 321 322 322 322 322 322 321 321 321 321 320 319 320 319 319 318 317 317 317 318 318 317 317 316 316 315 315 315 316 316 316 316 316 316 315 315 315 315 317 316 316 316 314 315 315 314 313 313 314 312 313 311 311 312 309 310 309 307 306 305 306 306 306 307 307 304 302 302 303 302 301 302 302 302 302 303 303 303 302 303 305 305 304
320 321 321 320 320 321 322 321 321 322 322 321 320 320 321 321 320 319 317 317 317 317 317 317 316 316 317 317 317 317 318 319 318 318 318 319 318 318 317 316 316 315 315 315 315 316 317 315 315 315 314 314 313 313 313 312 310 309 307 305 304 305 306 306 307 307 306 304 304 303 304 302 303 303 302 303 303 302 303 304 304 304 305 304 305
320 320 320 320 319 320 320 321 321 322 322 322 321 319 319 321 320 319 319 318 318 317 317 318 319 318 319 319 319 321 320 320 321 322 321 320 320 319 319 318 317 317 316 315 315 316 316 315 317 316 315 315 315 315 314 314 312 310 309 308 304 305 305 305 305 306 307 305 304 304 304 303 304 302 301 302 303 302 302 302 303 304 305 304 304
320 319 319 319 319 320 320 321 321 321 322 323 322 320 320 320 319 320 319 319 319 318 318 319 322 320 320 320 321 321 321 321 322 320 320 320 320 320 320 320 319 319 320 318 317 316 316 316 316 316 315 316 316 316 316 314 312 311 311 308 307 306 306 306 306 306 306 306 305 303 303 303 304 303 301 303 303 303 302 301 300 301 302 304 304
319 319 319 319 320 320 321 321 321 321 321 322 321 320 320 320 320 319 320 321 321 320 320 319 319 319 320 321 320 321 320 320 321 322 319 317 318 318 319 320 320 320 320 320 320 319 318 317 317 317 316 313 307 308 310 310 313 311 310 308 307 306 306 306 306 306 305 305 304 304 304 304 304 303 302 301 300 299 302 303 302 302 302 302 303
317 318 318 319 320 320 320 321 321 321 321 321 321 321 320 319 319 319 319 320 320 320 319 319 319 319 319 320 321 320 321 320 314 308 309 314 314 315 317 319 319 320 320 319 320 321 320 319 319 312 307 305 303 299 298 299 303 310 311 308 305 306 306 306 305 305 306 304 304 304 303 303 302 302 302 302 302 303 302 302 300 300 301 301 302
317 317 318 319 319 319 319 320 320 320 320 321 321 320 319 320 319 319 320 319 319 317 318 318 318 318 319 319 319 318 319 316 305 301 300 302 314 318 318 319 320 320 319 319 319 320 321 320 320 315 310 307 307 298 297 296 296 296 299 301 303 307 307 305 305 306 304 304 304 302 300 301 303 302 302 301 303 301 301 301 300 300 298 296 295
315 316 316 318 318 318 318 319 319 319 319 319 320 319 319 319 319 320 320 319 317 317 317 316 316 317 318 318 320 320 318 308 300 300 299 297 302 317 319 318 318 319 319 319 319 319 319 320 320 319 318 316 316 314 304 296 295 294 294 294 294 291 293 306 306 303 304 303 302 302 301 301 302 302 302 302 301 301 301 301 300 298 297 296 296
311 315 316 317 317 318 318 318 318 318 318 319 319 320 319 318 318 318 318 320 319 317 317 318 318 318 318 318 319 319 319 301 298 298 298 297 296 304 317 317 317 318 318 318 318 317 317 317 317 318 316 308 308 312 313 309 295 293 293 293 292 291 289 289 292 306 306 304 303 303 302 302 301 301 302 301 301 300 300 299 299 298 298 296 296
306 307 310 313 316 316 316 317 317 317 317 317 318 318 318 318 318 319 319 319 318 318 319 318 319 319 319 319 319 319 320 300 297 297 297 295 294 298 313 314 315 315 314 314 314 315 315 315 314 315 314 313 313 312 311 310 304 301 302 303 303 300 294 292 292 292 299 304 303 302 302 302 301 302 301 300 299 298 297 297 298 297 297 296 298
305 306 308 310 311 314 315 315 316 316 316 316 317 317 317 317 318 318 318 318 318 317 317 318 319 319 319 319 319 318 318 297 296 296 295 294 292 298 315 313 312 312 310 309 309 310 311 312 312 312 310 309 307 306 308 307 306 305 304 303 303 303 304 303 303 303 302 302 302 301 301 302 302 301 301 300 300 299 299 298 298 297 297 299 299
304 305 304 305 307 310 312 314 315 316 316 315 315 316 317 316 315 315 315 316 317 318 318 319 318 318 318 318 317 316 313 294 294 293 293 291 295 313 313 312 311 310 309 308 308 309 309 309 309 309 308 306 297 293 299 305 304 304 303 302 302 301 298 294 291 294 300 302 302 302 302 301 295 300 299 299 300 300 298 299 299 298 297 295 294
302 303 305 305 304 305 308 310 312 313 314 314 315 315 316 315 315 314 314 315 315 316 317 317 317 317 315 316 317 316 311 296 292 292 291 293 302 312 311 309 308 307 306 306 307 308 308 308 308 307 306 304 293 291 293 299 304 303 303 302 301 300 298 297 292 290 290 290 289 289 289 289 290 290 289 289 294 297 297 296 296 297 294 292 294
301 302 302 303 305 304 305 307 309 308 307 309 312 314 316 317 316 313 314 313 312 312 312 312 313 315 314 315 316 314 309 298 292 292 293 295 303 311 310 309 307 305 304 304 305 304 301 298 304 307 305 303 290 292 293 301 305 304 303 301 300 299 298 298 298 296 290 290 289 288 289 289 289 288 289 290 290 293 296 293 295 294 293 293 291
300 300 301 303 304 305 305 306 307 307 307 308 310 312 312 312 313 312 313 314 313 311 310 311 310 310 312 313 306 311 308 299 292 293 293 292 302 312 309 308 306 305 304 302 303 303 301 296 294 297 300 295 289 290 292 301 306 304 303 302 300 299 298 298 297 297 297 298 298 297 296 294 297 299 298 289 289 292 297 297 296 294 292 292 292
299 301 301 302 303 304 306 305 306 307 307 307 306 308 309 309 307 307 308 308 307 307 307 308 306 305 305 307 307 310 309 307 300 291 293 293 296 311 311 309 307 305 305 303 302 302 301 299 295 289 289 289 289 289 290 293 303 304 303 302 300 297 297 298 297 297 296 296 297 297 297 297 298 298 298 298 298 297 297 297 296 295 293 292 293
299 300 301 301 302 302 304 305 305 307 308 307 306 305 306 308 307 307 305 305 306 305 304 304 303 303 303 305 307 308 309 307 300 291 292 293 293 301 311 310 308 306 304 302 302 301 300 299 298 290 289 289 289 289 289 290 293 302 301 300 299 297 295 298 295 291 297 296 296 296 297 297 297 297 297 297 296 296 296 296 296 295 294 292 292
299 299 299 300 301 302 303 305 306 307 307 308 308 306 305 306 307 309 308 307 306 304 303 304 303 302 301 303 305 305 303 301 303 293 291 292 292 296 308 310 307 306 303 302 301 301 300 299 298 291 288 289 289 289 289 290 291 298 294 288 287 289 297 296 297 296 296 296 296 295 296 295 295 295 295 295 295 295 295 296 296 296 296 295 293
298 298 299 299 300 301 302 303 304 306 307 307 308 308 307 306 307 308 307 306 302 300 299 300 301 301 301 301 302 303 304 301 296 299 291 291 290 292 296 300 294 306 304 302 301 299 299 298 295 289 288 288 288 288 289 289 292 293 287 287 287 287 292 296 295 296 295 295 295 294 294 294 294 293 293 293 295 295 295 295 295 295 295 295 295
297 297 298 298 299 300 301 301 303 305 305 304 304 308 307 306 306 307 308 306 303 300 298 299 299 299 299 298 299 300 301 302 294 293 294 289 290 290 291 291 294 305 305 302 301 299 299 299 294 288 288 288 288 288 288 290 291 287 287 287 288 290 296 296 295 295 293 293 293 293 293 293 293 293 293 294 293 294 294 294 294 294 294 294 294
295 295 296 297 298 299 300 301 302 302 305 304 303 303 305 305 304 306 307 306 304 302 299 299 299 298 297 296 296 296 298 300 300 293 290 290 289 289 289 289 290 292 300 300 300 299 293 288 288 288 288 288 287 288 288 287 286 287 287 287 291 296 295 295 294 294 292 291 292 292 292 292 293 293 294 294 293 293 294 294 294 293 294 293 293
293 294 295 296 297 298 298 299 301 302 301 302 303 302 303 304 305 305 306 306 305 304 301 299 298 297 297 296 296 297 297 299 298 296 293 292 290 288 289 289 291 292 294 295 289 288 288 288 287 287 288 291 295 295 294 293 287 287 287 290 296 294 294 293 293 292 291 291 291 290 291 292 292 293 292 292 291 291 292 291 291 290 291 291 290
292 293 294 295 296 297 298 298 301 300 299 301 302 303 302 302 303 304 305 305 305 303 300 300 300 299 296 294 295 296 297 297 298 298 298 297 296 294 294 293 290 291 294 293 291 293 292 292 292 289 289 287 289 289 290 290 292 293 294 294 294 293 293 292 292 291 291 291 290 291 292 292 292 291 290 290 290 290 291 290 289 289 290 290 289
292 292 293 294 295 296 297 292 294 298 299 303 302 303 303 302 302 302 305 306 305 302 302 301 301 299 295 293 293 294 294 295 296 297 298 299 299 299 298 297 298 298 297 297 297 294 292 288 290 294 294 294 294 295 294 294 291 289 293 293 292 291 290 289 289 292 292 292 291 291 291 291 290 290 289 289 289 290 291 290 289 289 289 289 287
291 292 293 293 294 296 296 297 298 298 299 300 301 300 302 302 302 303 307 305 305 305 304 303 301 304 301 296 296 297 294 293 295 294 298 293 296 299 298 298 298 298 294 292 295 295 295 295 293 293 292 291 291 291 292 292 291 291 292 292 292 292 292 291 291 291 291 291 290 289 289 290 289 289 289 289 289 290 291 290 290 289 289 289 287
290 291 292 293 294 295 296 296 297 298 298 299 300 299 287 289 296 301 302 295 292 291 293 301 304 303 301 301 302 303 298 298 291 289 289 290 290 291 292 292 291 293 289 289 292 293 292 291 292 291 291 292 291 290 290 290 290 290 289 288 290 290 289 290 290 290 290 289 289 289 289 288 288 288 289 288 289 289 290 288 289 289 288 287 287
289 290 291 292 292 294 294 295 297 298 299 299 299 299 299 294 287 286 289 293 292 291 291 290 290 294 299 300 298 290 290 289 288 289 288 288 289 288 288 288 288 287 287 291 292 292 291 291 290 291 291 291 290 290 289 289 289 289 289 289 290 289 288 289 290 289 288 288 288 289 289 288 288 288 287 287 288 288 289 289 289 289 288 287 287
288 288 290 291 291 291 293 294 296 297 298 299 299 298 298 297 296 290 287 289 290 290 290 290 290 290 290 293 295 295 289 288 288 288 288 288 288 287 287 287 286 287 287 289 292 291 292 291 291 290 291 290 289 289 289 289 288 289 289 288 289 289 288 288 288 289 288 289 288 289 289 289 288 288 287 287 287 287 288 288 289 288 287 288 287
289 289 289 289 290 290 291 292 294 296 297 298 298 297 297 297 297 296 295 288 287 287 287 288 289 289 289 290 291 291 289 288 288 288 288 287 287 287 287 287 287 286 288 291 292 291 291 291 291 290 290 289 289 289 289 290 289 289 289 289 288 289 289 289 288 289 288 289 288 288 288 288 288 287 287 287 287 287 287 287 288 288 288 287 287
290 289 289 289 290 291 291 292 293 295 297 298 298 298 296 298 297 297 295 296 296 292 288 287 288 288 288 289 289 288 288 288 288 288 287 287 287 286 287 288 286 286 290 291 291 291 291 291 291 291 291 290 289 289 288 289 289 289 289 290 290 290 290 290 290 289 289 289 290 289 289 289 288 287 287 287 288 288 287 287 288 287 287 286 286
290 288 286 287 290 290 291 292 293 295 296 297 298 297 298 297 297 295 294 294 294 295 293 291 288 289 292 290 288 288 288 288 288 287 287 287 287 286 287 289 289 290 292 294 293 292 290 290 290 291 291 289 289 288 289 290 290 289 289 289 289 289 288 288 288 288 289 290 290 289 289 288 288 287 287 287 287 287 287 287 287 286 286 286 286
290 290 290 288 288 289 290 291 292 293 295 296 298 298 297 296 296 296 296 295 294 292 288 289 289 287 286 286 286 287 287 288 287 287 287 287 286 288 290 291 291 291 291 292 292 291 291 291 291 291 291 290 290 289 290 290 290 290 291 290 288 288 287 288 288 288 288 289 289 289 288 288 288 287 287 287 287 286 287 286 286 286 286 286 286
290 290 289 290 290 290 290 291 292 293 291 293 295 297 296 296 295 296 298 297 293 294 292 290 290 290 289 288 288 287 287 287 287 287 286 286 287 291 293 292 291 291 290 291 291 291 290 291 291 291 290 290 290 291 290 290 291 291 289 289 288 287 287 287 288 287 288 289 289 288 288 288 287 287 287 286 286 287 287 286 286 286 286 286 285
290 290 290 290 290 290 290 290 291 288 291 293 295 296 296 296 295 294 294 293 293 291 291 292 290 291 290 289 289 289 288 287 287 287 287 287 290 293 292 291 292 291 290 291 291 291 290 290 291 290 290 291 291 291 291 290 291 290 289 288 287 287 286 286 286 287 287 289 289 289 288 288 287 287 287 286 286 286 286 286 286 286 286 286 286
291 289 288 287 288 290 290 290 290 291 291 292 294 294 293 293 293 293 294 294 292 290 291 292 291 291 291 290 289 289 288 288 289 289 289 291 292 292 292 291 291 291 291 291 291 289 290 290 289 289 290 291 290 290 290 290 290 289 288 287 287 287 287 288 289 289 289 289 289 289 288 288 287 287 287 287 286 286 286 286 286 286 285 285 285
291 291 288 287 288 289 289 289 290 291 290 291 293 294 293 293 293 292 292 292 291 291 291 290 290 289 290 291 290 291 290 290 290 290 290 290 291 291 292 291 290 290 289 289 290 290 290 289 289 290 290 290 291 291 291 289 289 289 288 287 286 286 287 288 289 289 289 289 289 289 288 287 287 287 287 287 287 287 286 286 286 286 286 286 286
291 291 288 287 288 289 289 289 289 290 292 291 292 292 293 293 294 292 293 292 291 291 290 290 289 288 289 289 288 289 292 291 290 291 290 290 290 290 290 291 290 290 290 289 290 290 289 289 289 290 288 289 289 289 290 289 288 288 287 286 287 287 287 288 287 288 288 288 288 288 288 287 287 286 286 287 287 287 287 287 287 286 286 286 286
291 291 290 289 288 289 289 288 289 290 291 291 292 292 292 292 292 292 291 291 291 290 290 291 291 290 288 286 287 288 292 292 292 291 292 292 290 290 290 290 291 290 291 290 290 290 289 288 289 290 289 289 290 290 290 289 288 287 287 286 286 286 287 288 288 287 287 288 288 287 287 286 286 286 286 286 287 287 287 287 287 286 286 286 286
291 291 291 290 290 289 289 289 289 290 289 290 291 290 291 292 292 292 291 291 290 290 289 288 288 287 287 286 288 288 292 292 289 290 290 290 291 290 290 290 291 291 291 290 290 290 290 289 289 290 290 289 289 290 289 288 287 287 287 286 286 286 286 286 287 287 287 287 286 285 285 285 286 287 287 287 287 287 287 287 287 287 286 286 286
290 290 290 289 289 288 287 288 288 288 289 288 289 291 291 291 292 292 291 289 289 288 288 287 287 287 287 288 289 291 292 291 290 289 288 289 289 290 290 289 290 289 289 290 289 290 290 290 289 290 288 289 289 288 288 288 287 286 286 285 285 284 285 285 285 284 284 283 283 283 285 285 286 287 287 287 287 287 287 287 286 286 286 286 286
290 290 290 289 288 288 287 288 287 287 287 288 289 290 290 292 291 290 290 289 288 288 288 287 287 288 288 290 291 291 290 290 288 288 289 289 289 289 289 289 289 289 290 289 289 289 289 289 289 288 288 289 289 288 288 286 286 285 285 284 283 284 284 283 282 282 281 281 282 283 284 285 286 287 287 287 287 287 287 287 286 286 286 286 286
290 290 289 289 289 289 288 288 287 289 289 289 289 289 290 291 290 289 289 288 288 287 287 287 287 288 289 290 290 288 288 288 288 288 288 288 288 288 288 289 289 289 290 290 289 288 289 289 289 289 288 288 287 287 286 285 284 284 283 283 282 282 282 282 281 281 281 281 281 282 283 284 286 286 286 287 288 288 287 287 287 287 286 286 286
290 289 289 289 288 288 288 288 288 288 289 289 289 289 290 290 290 288 287 287 287 287 288 288 288 288 288 288 288 287 287 287 287 287 286 286 286 287 288 288 289 288 289 288 287 288 286 287 287 286 286 286 285 283 284 284 284 284 283 283 283 282 281 281 280 280 281 281 282 282 283 284 285 287 288 288 288 288 287 287 287 286 286 287 287
291 290 289 288 288 288 288 288 287 287 288 288 288 289 289 289 289 289 289 288 287 288 288 289 289 288 288 287 287 287 287 287 286 286 286 286 287 288 287 287 288 288 288 287 287 287 287 286 285 285 284 283 283 283 282 282 283 283 283 283 283 281 279 278 280 280 281 281 281 282 283 285 286 288 288 288 288 288 287 287 287 287 287 287 287
291 290 290 289 288 287 287 287 287 287 287 288 288 288 288 289 289 289 289 288 287 287 287 287 288 288 288 286 286 286 286 286 286 287 287 287 287 287 287 287 286 287 287 287 286 285 285 285 283 283 283 283 283 282 282 281 281 281 281 281 280 278 278 278 279 280 279 280 282 284 286 287 287 288 288 288 288 288 288 287 287 287 287 287 287
290 290 290 290 289 289 289 288 288 288 287 287 287 286 287 287 287 287 287 286 286 286 286 286 286 287 287 286 286 286 286 286 286 287 287 288 288 287 287 286 286 286 286 285 285 284 283 283 282 282 282 282 282 282 281 281 281 281 281 280 278 278 277 277 278 278 279 281 281 284 287 288 288 289 289 289 288 288 287 287 287 287 287 287 287
289 289 289 289 289 288 289 288 287 287 287 286 286 286 285 285 285 285 285 285 285 285 285 285 285 285 286 286 286 287 287 287 288 288 288 288 287 287 287 286 285 284 284 282 282 282 282 282 282 282 282 282 282 281 281 281 281 280 279 278 278 278 278 278 278 278 278 279 282 285 288 288 288 288 289 289 289 289 287 287 287 287 287 288 288
Wind_Speed
11 9 9 9 9 9 9 7 7 5 6 5 5 4 4 4 3 1 3 4 5 5 5 5 4 4 4 3 3 3 3 3 3 3 4 4 4 4 4 4 5 4 5 5 4 3 4 5 4 3 1 3 3 3 4 4 4 3 3 4 5 3 3 4 5 6 4 2 2 3 3 2 5 5 5 4 4 4 5 6 6 6 5 4 6
10 10 8 8 10 9 9 7 6 5 5 4 5 5 5 4 4 3 4 3 5 6 6 5 4 4 4 4 4 4 3 4 3 2 3 3 4 2 2 3 3 4 3 4 4 2 3 4 5 4 1 3 3 4 5 5 5 5 4 4 4 4 1 4 5 4 5 3 3 2 2 2 3 4 4 4 4 3 5 5 5 6 6 5 3
8 8 8 8 8 6 5 5 5 5 4 3 5 5 6 6 6 5 4 3 2 4 6 6 6 5 5 4 4 3 4 3 3 2 2 1 1 2 2 1 2 2 3 3 4 3 3 3 4 3 2 3 3 3 3 4 4 4 5 3 4 4 3 3 4 5 5 4 2 3 2 2 2 3 3 2 2 3 3 4 4 5 5 5 4
8 7 8 8 7 5 4 5 5 4 6 6 7 6 6 6 6 6 5 4 4 3 5 6 6 6 6 5 4 4 3 3 3 2 3 2 1 1 0 0 1 1 2 2 3 4 4 4 4 4 3 4 4 3 3 3 3 4 5 4 5 5 4 3 3 4 4 4 3 2 2 2 2 2 1 1 1 2 3 1 2 4 6 5 4
7 7 7 6 5 5 6 6 7 9 8 4 4 4 5 6 6 7 6 5 5 4 5 6 7 7 7 7 6 5 4 4 4 3 3 2 1 1 1 1 1 2 3 3 3 4 4 5 5 6 5 5 4 4 4 5 4 4 4 4 4 4 3 3 3 3 4 4 4 2 1 1 1 1 2 2 1 1 1 1 2 3 5 5 3
5 5 5 5 5 6 6 7 8 6 3 3 3 1 2 4 5 5 7 7 7 6 7 6 7 8 9 8 8 7 6 5 5 4 3 2 1 0 0 1 2 3 4 4 4 4 5 6 5 5 6 6 6 5 5 7 5 5 5 4 4 4 4 4 3 3 3 3 3 3 2 1 1 2 2 2 2 3 4 3 1 1 4 5 4
4 5 5 6 6 7 7 8 7 6 7 5 6 6 6 5 6 7 6 8 8 8 8 8 7 7 8 7 7 6 6 5 4 4 3 3 3 2 2 2 3 3 4 5 5 6 6 6 6 6 7 7 7 7 7 7 5 7 6 5 5 5 4 4 3 3 2 3 3 1 2 2 1 1 2 2 1 3 6 6 5 4 4 5 6
4 5 5 6 7 7 7 6 6 7 6 4 4 6 6 7 7 7 8 8 8 9 9 9 7 7 7 7 7 6 4 3 4 4 3 4 4 4 3 3 4 5 5 5 5 6 6 7 7 7 7 7 7 7 7 7 6 7 5 5 5 5 4 4 3 3 2 2 1 2 1 0 2 1 0 1 2 2 4 5 7 8 8 6 5
2 4 6 7 8 8 6 6 6 7 7 6 5 5 6 7 8 8 8 7 5 7 7 7 7 7 7 7 7 5 3 2 2 2 4 5 5 6 7 6 6 6 6 6 5 5 6 6 6 6 5 5 6 6 5 5 6 7 6 6 6 6 5 4 4 3 2 2 2 2 1 1 0 1 1 2 3 4 3 3 5 5 7 8 7
3 4 6 7 6 5 6 5 6 7 8 8 8 9 8 8 9 10 10 8 6 5 7 7 6 6 5 4 4 4 2 2 4 5 5 2 7 6 6 7 6 6 7 7 7 6 5 5 5 5 4 6 8 9 9 8 8 7 7 7 7 6 6 5 4 3 1 2 1 1 2 3 1 2 2 1 1 1 2 4 5 6 6 7 6
2 3 5 4 3 2 3 4 5 7 7 7 6 9 10 9 11 11 7 7 8 6 4 5 6 5 4 3 5 7 7 7 13 11 11 10 6 6 6 6 6 6 6 6 7 6 5 4 3 3 5 7 8 11 10 10 11 10 7 10 9 7 7 5 4 3 2 1 1 1 1 3 1 1 2 2 1 3 3 3 4 5 6 8 9
1 2 3 3 3 3 3 3 5 6 7 8 8 8 8 9 10 8 6 8 8 9 10 10 8 7 7 9 9 8 7 8 14 12 11 10 9 6 4 4 4 4 4 5 5 5 5 5 4 3 3 4 4 5 8 10 10 5 4 5 5 9 8 2 3 3 2 2 2 1 2 3 2 1 1 2 2 3 3 4 4 4 6 6 7
3 2 2 3 3 2 5 6 6 7 7 7 6 6 7 9 9 9 10 10 8 10 10 9 11 11 10 10 9 7 6 9 12 12 12 11 10 6 3 3 3 3 3 3 4 4 4 4 3 2 2 1 4 4 3 5 6 7 9 9 9 8 7 8 8 4 1 2 2 2 2 2 3 1 1 1 2 5 5 5 4 5 5 6 6
4 3 3 3 2 2 1 4 6 5 4 5 6 8 7 9 9 8 7 7 8 8 9 12 9 9 9 9 9 7 6 9 12 11 11 9 8 6 3 2 1 1 2 2 2 3 3 3 3 3 3 2 2 1 2 4 6 7 7 6 6 6 7 7 7 8 5 2 1 1 2 0 2 1 1 1 3 4 5 5 5 6 7 7 9
7 6 4 2 1 2 4 3 4 4 3 3 4 7 10 9 7 6 5 6 7 8 10 11 10 8 8 8 7 6 5 11 11 11 8 8 9 6 2 3 2 2 1 1 2 2 3 3 3 3 3 2 3 2 2 4 7 7 7 6 5 4 5 5 5 3 3 2 2 2 3 2 1 1 0 1 3 3 3 5 6 7 8 8 9
8 7 6 6 4 2 4 5 6 6 6 5 6 6 5 5 5 3 3 6 7 7 8 7 8 8 7 7 7 6 4 7 8 8 9 9 9 4 4 4 3 3 3 4 3 3 3 3 2 2 3 3 5 5 4 5 7 7 7 6 5 5 6 6 7 7 6 5 4 3 3 4 5 3 3 3 2 3 4 5 6 6 6 7 8
9 8 6 5 6 6 5 5 5 5 6 6 7 8 7 8 7 6 8 8 9 8 7 7 6 5 5 6 7 6 5 6 9 11 11 11 8 5 5 5 4 5 3 2 2 3 4 3 3 3 4 5 6 6 5 3 5 6 6 5 4 4 5 4 6 8 8 9 8 8 7 5 3 3 2 3 4 4 4 5 5 5 7 9 8
9 9 8 8 6 5 5 6 6 5 5 7 8 7 7 6 7 6 6 5 4 4 3 2 3 6 8 8 7 7 6 7 10 12 13 11 7 7 6 5 5 5 4 3 3 5 7 10 6 5 6 5 6 6 3 1 4 5 5 5 5 4 4 3 2 3 4 4 5 5 5 3 0 3 4 3 4 5 4 6 6 6 8 8 9
10 10 9 9 8 6 5 6 6 5 5 6 5 6 6 6 4 5 6 7 5 4 5 5 4 4 4 5 7 9 8 7 10 12 12 10 7 5 5 6 6 5 5 5 5 5 6 9 11 9 8 6 8 7 4 2 5 4 4 4 4 4 3 3 2 2 2 2 3 4 4 5 4 3 3 7 6 7 5 6 6 7 8 9 9
10 9 10 9 8 7 5 5 6 6 6 4 3 5 3 3 4 4 3 2 3 3 4 4 5 4 4 5 5 6 8 6 7 11 11 10 9 6 5 5 5 5 5 5 6 5 6 6 8 9 11 11 11 10 10 8 5 4 3 3 3 4 4 3 2 1 1 0 0 1 2 2 3 3 4 4 4 5 5 6 6 7 9 9 9
10 10 10 10 10 9 7 5 6 7 6 4 2 3 4 6 6 6 5 3 3 3 3 3 4 4 3 3 4 3 4 7 6 10 10 10 9 7 5 5 6 6 5 5 5 5 5 5 6 7 11 11 12 11 11 11 8 5 4 4 4 5 3 3 3 1 0 1 2 3 3 3 4 4 4 5 5 5 6 6 7 8 8 10 10
9 10 10 11 10 10 9 7 5 4 5 5 4 4 4 2 5 7 6 6 6 4 4 4 5 5 3 3 4 4 3 4 7 7 10 10 9 4 4 4 5 6 6 5 5 5 5 5 6 6 10 11 11 11 11 10 9 7 7 8 7 4 3 2 1 1 1 2 3 4 4 5 5 5 6 6 6 6 6 7 7 8 8 9 11
9 10 10 10 10 10 9 9 7 4 4 5 6 6 4 5 4 5 7 6 7 6 5 4 6 6 4 3 3 3 4 4 5 7 8 9 8 5 7 7 5 6 6 6 6 6 6 7 6 7 10 10 11 10 9 9 9 7 8 8 7 4 2 1 1 2 2 3 4 5 5 6 6 6 6 7 6 7 7 7 8 8 9 10 11
9 9 9 10 10 10 10 9 8 6 4 3 5 6 5 6 5 5 6 7 7 6 5 5 5 6 6 4 3 3 3 4 4 5 7 7 8 9 9 9 7 4 5 6 6 6 7 6 7 9 10 11 12 12 11 10 8 8 8 7 5 2 1 1 1 2 4 4 5 5 6 6 6 6 6 7 7 8 8 9 10 10 10 10 11
9 9 9 9 9 9 9 9 8 6 4 2 3 4 5 4 5 4 5 5 6 7 6 6 6 7 6 6 4 3 3 4 4 5 8 9 10 10 10 10 9 10 8 7 6 6 9 12 12 12 12 13 13 12 11 10 9 8 7 4 2 1 2 2 3 4 5 4 5 6 6 6 6 7 6 7 8 9 10 9 8 9 9 10 10
10 10 10 9 9 10 10 10 9 6 6 6 4 2 2 4 4 6 5 6 6 7 7 6 6 6 7 7 7 6 5 5 5 6 6 8 9 10 12 12 11 11 11 10 12 13 13 13 13 12 10 8 7 6 6 6 7 7 4 1 1 2 2 3 3 4 5 5 5 6 6 6 6 7 8 8 8 9 9 8 8 8 8 9 9
11 10 10 10 9 9 9 9 7 7 8 5 4 4 2 2 4 4 6 7 7 7 7 7 7 7 6 6 6 7 6 6 7 7 7 7 8 10 10 10 14 15 11 9 11 9 9 8 7 9 9 10 9 8 8 7 5 3 2 2 2 2 2 2 3 4 4 5 5 6 7 8 8 8 7 7 8 8 7 8 8 9 9 9 10
11 11 11 10 9 9 9 8 9 7 8 5 3 4 3 3 5 5 5 4 5 1 3 5 7 6 6 6 6 5 5 6 7 8 8 8 8 8 9 10 9 8 9 9 8 9 9 10 10 7 7 6 5 4 3 3 2 1 1 1 1 1 0 3 5 3 3 4 5 7 8 7 8 8 7 7 8 8 8 8 9 9 9 9 9
13 13 11 10 10 8 8 8 8 8 8 7 4 4 4 5 5 3 2 0 2 1 4 3 3 6 7 7 7 5 4 6 7 7 10 11 10 10 9 9 8 8 9 12 10 8 8 6 4 5 4 3 2 2 2 2 1 2 2 2 1 1 2 3 4 4 4 5 5 6 7 8 8 7 8 8 8 9 9 9 9 9 9 9 10
14 13 11 10 10 8 8 8 8 8 7 7 5 3 4 2 3 6 6 6 7 6 3 4 6 5 6 6 7 7 9 9 11 11 12 12 12 12 11 12 11 11 13 13 10 7 5 4 3 3 3 2 2 2 1 1 1 1 1 1 1 2 3 4 4 4 4 5 5 6 7 7 7 8 8 9 9 9 9 9 9 9 9 8 9
13 11 12 11 10 8 8 8 8 8 7 7 5 4 4 5 6 1 4 5 8 9 11 11 6 1 6 5 4 7 5 12 17 14 13 12 12 14 15 15 17 17 15 9 6 6 6 4 4 3 2 1 1 1 1 1 1 1 1 1 1 2 2 2 4 3 4 4 4 6 6 7 7 7 8 9 9 10 9 9 8 9 9 9 9
13 12 11 12 12 10 9 9 8 7 7 6 5 5 4 4 3 6 4 7 6 6 6 6 9 10 11 7 4 3 6 14 17 15 13 14 14 15 16 17 16 16 12 9 6 5 4 4 3 2 2 2 2 1 1 1 1 1 1 2 2 2 3 3 4 5 4 4 5 6 7 6 7 8 8 8 9 9 9 9 8 8 9 9 10
14 13 12 12 11 12 11 9 8 8 8 6 5 5 5 6 5 4 4 7 7 7 6 5 2 6 7 6 9 8 11 15 17 16 15 15 16 15 16 16 15 12 11 6 5 5 4 3 3 2 2 2 2 1 1 2 1 1 1 2 3 3 3 4 4 4 4 4 5 6 6 7 7 7 8 8 8 9 9 9 8 8 9 9 9
15 13 12 12 11 11 11 10 8 8 7 7 6 6 7 6 6 7 6 4 3 6 8 7 8 7 4 8 9 11 16 19 18 18 17 16 17 17 15 10 9 6 4 4 5 4 3 3 3 4 3 2 2 2 1 1 1 1 2 2 3 4 5 5 5 4 4 4 6 6 6 6 7 8 8 8 8 8 9 8 8 8 8 8 9
13 14 15 12 12 12 10 9 9 9 9 7 6 6 7 6 7 8 7 7 6 4 2 3 3 8 7 5 5 12 17 18 17 18 18 18 18 17 16 10 8 4 4 5 5 5 4 3 3 4 4 2 2 2 1 1 1 1 2 3 4 4 4 4 4 4 4 5 6 6 6 7 7 8 8 9 9 9 9 8 8 8 9 9 10
13 13 11 11 11 11 11 10 9 10 10 9 7 5 5 5 6 6 6 6 5 5 5 3 1 5 10 8 9 9 14 17 17 18 19 19 19 18 10 8 7 6 5 6 5 5 5 4 4 4 4 4 3 1 1 0 1 2 3 4 4 4 4 4 4 4 4 4 6 6 7 7 8 8 8 9 9 9 8 8 9 9 9 10 10
10 10 11 11 10 10 10 11 11 10 10 8 6 5 5 5 5 6 6 6 6 5 5 5 4 4 6 6 7 10 11 16 16 17 18 18 18 9 6 7 7 6 6 5 5 6 4 3 4 4 4 3 2 2 1 1 2 2 3 4 4 4 3 4 4 4 4 5 7 6 7 8 8 8 8 9 9 9 9 9 9 9 9 11 11
10 9 9 10 10 11 10 10 10 9 9 8 8 6 4 5 6 6 5 5 6 6 6 6 5 6 7 8 10 8 11 13 15 12 10 10 6 4 5 5 7 6 6 5 5 4 4 3 4 4 4 3 3 1 0 0 1 2 3 3 4 3 6 6 5 4 3 5 6 7 7 8 8 8 8 9 9 9 9 9 9 9 10 10 9
8 11 13 11 10 10 9 8 9 9 10 9 9 7 4 4 3 4 5 4 4 5 6 8 8 7 7 11 11 12 14 11 10 10 10 8 5 4 5 6 5 5 5 5 6 5 4 4 4 3 3 3 2 1 0 1 1 2 2 3 4 3 3 3 2 3 4 6 6 6 7 8 8 8 8 9 9 9 10 10 10 9 9 9 9
7 6 8 12 7 7 7 7 8 8 9 9 10 9 6 5 4 4 3 3 4 5 6 7 6 3 5 10 12 13 11 11 10 10 8 7 6 5 6 6 5 6 6 5 5 4 5 4 4 3 3 2 1 0 0 1 2 2 2 3 3 3 3 3 2 3 4 6 6 7 7 8 8 9 9 8 9 9 10 10 10 9 9 9 10
5 3 5 7 8 7 7 6 7 7 8 9 8 9 6 5 5 3 3 4 4 4 3 5 6 6 6 9 16 16 13 10 9 8 7 7 6 5 6 6 6 6 5 5 5 4 4 4 3 3 2 1 0 0 0 1 2 2 2 3 3 3 4 2 2 2 4 6 7 7 7 8 8 9 9 9 10 10 9 10 9 9 9 9 9
5 1 4 5 7 6 5 6 6 6 6 7 8 8 8 5 3 3 3 3 3 4 3 3 2 4 8 12 12 13 10 10 10 10 8 8 6 6 6 6 6 6 5 5 5 5 4 4 3 2 2 1 0 0 0 1 2 2 3 3 3 4 4 3 2 3 5 7 7 7 8 8 9 9 9 10 9 9 9 9 9 9 9 9 8
8 5 3 4 4 5 5 4 4 5 5 5 6 6 6 5 4 5 4 4 5 6 5 4 4 4 5 7 10 10 9 10 9 8 6 6 6 6 6 6 6 5 4 4 4 3 4 4 3 2 2 1 0 0 1 2 2 3 2 3 3 3 4 3 3 3 5 6 7 8 9 8 8 8 8 9 9 9 9 10 9 9 9 9 8
7 7 6 6 5 5 4 4 4 3 4 4 4 5 6 4 5 6 4 5 5 5 6 7 7 5 6 7 9 8 8 8 8 6 6 6 5 6 5 5 5 5 5 4 3 3 3 3 3 2 1 1 0 0 1 1 2 2 2 2 3 3 4 4 4 5 6 7 8 8 8 8 9 9 8 8 9 10 10 9 9 9 9 9 9
8 8 7 6 5 5 5 4 4 4 4 5 4 5 5 5 4 5 5 5 6 7 6 7 8 5 5 8 7 7 7 7 6 7 6 6 6 5 5 5 5 5 5 4 3 2 2 2 2 2 2 1 0 0 0 1 1 1 1 2 3 3 4 5 6 6 7 8 8 8 8 8 8 8 9 9 9 9 9 10 9 10 9 9 9
9 8 8 7 7 7 6 6 5 5 6 5 5 5 5 5 5 6 6 7 7 7 7 7 7 5 2 4 7 8 6 7 6 6 7 5 5 4 4 4 4 5 5 4 3 2 2 1 1 1 1 1 0 1 1 1 0 1 2 2 3 4 5 6 7 7 7 7 7 8 8 8 8 8 9 9 9 9 9 10 9 9 9 9 9
10 9 8 8 9 8 8 7 7 6 7 7 6 5 6 6 7 7 7 7 7 6 7 7 10 8 3 4 6 6 6 6 6 6 5 5 5 5 4 4 5 4 4 4 3 3 2 2 2 1 1 1 1 1 1 1 1 1 1 2 3 4 5 7 8 8 7 7 8 8 8 8 8 8 8 8 9 9 9 9 9 10 9 9 9
9 10 9 9 9 8 8 8 8 8 9 8 8 6 7 7 8 9 9 10 9 8 8 8 8 6 6 5 6 6 6 6 6 6 5 5 4 5 4 4 4 4 4 4 3 2 2 2 2 2 1 1 2 2 2 2 2 2 2 2 3 5 8 10 8 8 7 8 8 8 8 8 7 8 8 9 9 9 9 9 9 9 9 9 8
9 9 9 10 9 9 8 8 8 9 9 9 9 9 9 9 9 9 10 9 7 7 6 7 7 7 7 6 6 7 7 7 7 6 6 5 5 5 4 4 4 4 4 4 3 3 2 2 2 1 1 2 2 2 2 3 3 3 3 3 6 11 12 12 10 7 10 9 8 7 7 7 8 8 8 8 9 8 9 9 9 9 9 9 9
7 8 8 8 9 9 9 9 9 8 8 7 8 8 10 10 9 9 8 8 7 6 6 6 6 6 7 7 7 7 7 7 6 6 6 6 5 5 5 5 4 3 3 3 3 3 3 2 2 2 2 2 3 3 3 3 3 4 4 6 11 12 13 14 11 10 9 7 7 6 6 6 7 7 7 8 8 8 9 9 9 8 8 9 9
7 7 8 9 8 8 8 9 9 8 8 8 8 7 6 7 6 6 6 6 6 6 6 6 6 6 7 6 7 7 7 7 7 6 6 5 5 5 5 5 4 4 4 4 3 3 3 2 2 2 2 2 3 3 3 3 3 5 8 10 11 13 13 13 9 11 13 11 7 6 5 6 7 7 7 7 8 8 8 9 9 9 8 8 8
Wind_Direction
169 163 165 168 166 164 156 156 157 149 138 140 140 148 150 165 188 168 146 158 148 149 148 146 144 138 135 128 114 109 105 98 92 102 107 110 110 114 131 141 140 136 140 141 142 141 133 124 120 113 130 124 122 131 125 123 121 110 109 110 104 94 85 96 106 118 122 80 67 74 44 353 53 31 46 45 34 49 51 46 36 35 36 44 81
173 165 170 171 178 170 162 161 155 148 147 142 147 153 157 160 162 177 194 179 168 157 156 145 142 136 120 116 117 114 107 100 94 104 119 126 124 127 134 152 147 140 154 149 144 136 148 147 141 145 164 146 151 146 141 147 144 138 135 126 114 107 87 100 96 112 126 154 129 125 95 351 77 49 49 28 30 12 41 42 44 34 29 16 38
169 163 172 178 180 174 161 153 136 128 138 154 160 168 164 160 161 173 189 179 210 165 151 150 141 133 119 112 112 112 116 117 112 107 93 79 110 122 138 152 173 169 174 164 163 152 166 165 157 156 164 169 169 144 153 159 159 138 132 126 117 111 108 105 123 114 129 127 154 132 120 97 58 66 68 68 23 10 25 37 29 33 27 17 19
174 171 174 182 181 172 152 107 113 153 187 184 176 171 167 159 161 167 175 168 182 172 152 144 136 130 124 119 117 111 106 106 113 104 88 74 39 23 38 222 235 249 246 213 189 187 188 188 183 176 180 189 180 167 174 168 171 142 143 136 134 129 119 123 106 118 131 133 147 127 122 147 148 101 93 156 60 39 21 32 39 35 22 18 16
178 179 178 175 177 169 144 144 177 195 193 164 151 158 169 166 163 166 163 170 162 156 150 146 144 141 137 137 129 123 117 108 97 93 103 116 125 156 228 241 240 249 250 245 227 224 209 213 200 189 190 201 189 196 178 181 174 163 160 152 146 136 137 127 121 131 129 123 139 153 174 148 104 106 40 11 35 5 0 352 21 22 23 10 359
180 176 177 183 184 179 165 179 203 222 203 144 125 113 181 175 164 165 172 164 153 155 156 158 159 153 147 141 134 129 128 122 112 104 100 106 112 92 295 276 263 251 241 245 243 233 233 229 219 202 200 208 207 197 186 187 174 176 167 168 152 148 140 137 145 136 122 117 138 150 168 116 150 85 47 23 11 9 11 1 252 331 3 1 357
174 180 187 197 196 198 194 198 205 218 226 180 156 172 178 175 173 176 173 163 162 161 165 160 161 152 142 138 135 129 126 134 139 130 103 65 35 14 354 309 275 253 247 243 238 238 239 240 231 216 218 220 217 203 193 188 183 187 176 166 167 159 160 162 163 156 137 138 134 116 143 136 30 35 66 355 30 28 9 356 354 5 354 345 342
199 199 200 208 216 212 209 206 212 224 232 215 177 177 163 164 173 166 172 173 169 163 159 157 148 144 137 126 113 115 127 136 101 86 64 36 6 344 328 294 287 272 254 240 233 236 235 235 233 226 227 230 230 219 201 199 190 192 179 170 170 175 173 168 178 175 159 155 142 141 150 157 171 174 256 319 9 35 29 358 341 341 341 340 329
240 221 215 220 221 219 210 206 216 226 231 220 194 203 171 168 167 170 171 164 158 159 154 148 152 152 151 147 146 138 121 113 108 96 62 24 348 316 309 298 282 279 276 270 252 240 243 241 237 238 230 245 262 270 246 220 192 194 178 180 178 182 181 186 194 186 165 183 168 176 216 227 55 357 347 4 11 358 352 341 328 332 328 326 335
219 224 229 233 235 233 223 211 216 224 226 220 201 193 180 168 173 176 177 170 159 155 150 149 147 155 161 165 126 94 169 183 191 148 138 169 258 264 270 267 267 271 274 277 275 262 252 255 252 233 237 230 231 233 238 239 239 233 171 184 178 185 187 192 198 196 193 228 252 333 318 320 3 359 334 33 353 318 326 338 330 331 324 322 317
222 234 241 252 255 244 241 231 223 228 227 226 201 192 189 180 183 183 171 155 159 154 164 163 170 179 177 168 160 184 198 195 197 189 192 208 213 222 243 263 275 274 271 270 274 281 277 274 283 211 207 214 219 219 226 220 220 246 220 181 178 184 191 190 201 197 214 267 171 201 283 299 288 295 303 329 302 332 334 324 317 323 329 330 324
215 242 267 268 256 249 245 236 239 238 234 225 216 201 188 184 188 183 166 183 178 185 198 198 199 204 215 210 200 199 203 187 173 180 183 188 208 227 234 253 260 265 270 274 283 295 301 302 299 297 284 283 293 219 206 208 215 213 178 168 85 40 24 353 187 179 197 219 202 206 260 271 281 253 292 313 329 315 310 305 306 316 315 313 308
344 308 285 253 234 235 243 245 242 238 237 235 227 206 193 195 193 187 196 202 194 198 191 194 215 207 202 203 208 208 206 166 172 170 174 190 200 215 230 231 248 262 284 299 306 307 309 309 307 303 324 165 233 244 235 168 141 121 118 98 79 70 68 55 34 17 259 244 250 210 235 281 263 222 57 348 319 302 304 303 317 310 303 295 299
51 45 0 334 307 239 245 236 231 226 223 229 229 223 212 206 203 203 203 200 203 203 195 209 209 201 196 200 199 194 195 166 171 169 184 183 169 182 219 190 234 349 354 356 338 327 326 321 323 332 6 347 332 268 211 162 146 140 145 145 117 103 81 70 69 54 40 14 311 280 105 263 305 58 102 272 291 302 309 308 317 307 303 300 303
31 19 24 38 333 286 264 250 236 222 216 221 226 226 225 222 218 220 214 213 212 206 202 208 208 198 194 194 188 179 173 159 172 178 174 154 165 183 136 108 95 75 61 42 20 8 354 344 338 341 358 4 21 351 174 156 146 137 126 105 95 79 59 45 37 44 57 58 61 73 101 99 82 78 277 269 278 293 307 304 301 296 292 287 276
20 22 19 6 341 290 247 237 233 232 223 214 216 220 214 218 231 213 227 236 234 220 206 203 193 191 184 181 182 176 143 164 161 150 140 152 146 135 122 126 127 108 69 43 28 25 21 11 18 39 45 53 58 55 60 124 125 120 110 106 101 87 70 51 37 35 40 51 64 69 79 58 31 20 8 335 287 278 269 265 265 263 277 290 293
5 4 6 7 357 331 298 267 248 236 227 220 220 220 217 207 202 191 205 213 218 212 204 200 194 165 172 194 183 160 144 145 144 145 144 136 124 132 141 134 115 100 84 77 73 56 41 33 58 68 68 67 35 69 79 97 120 120 116 110 103 102 95 80 50 47 53 58 54 55 58 57 43 21 356 316 309 319 294 286 288 312 301 296 294
359 357 352 350 340 335 308 278 256 227 218 225 222 217 214 208 205 186 190 205 218 231 200 199 191 184 185 188 188 157 143 142 150 138 131 132 145 150 152 129 120 115 112 88 87 79 57 36 36 82 81 74 59 71 55 139 127 123 126 126 128 120 113 112 123 88 82 83 75 73 74 61 10 250 243 241 220 250 287 294 312 303 290 290 292
352 347 342 337 334 330 319 290 272 252 233 227 223 223 209 203 193 173 198 206 197 169 189 185 171 169 179 166 155 149 136 137 138 128 133 150 178 152 144 136 129 127 119 104 89 90 80 56 44 54 74 85 79 72 53 105 122 129 135 139 136 129 117 139 134 140 152 172 150 158 181 189 212 237 170 184 209 225 250 275 288 285 288 291 291
335 331 332 332 330 333 331 310 282 270 257 235 227 228 204 177 164 174 160 167 156 165 163 149 134 121 129 142 148 139 127 125 133 139 149 162 183 163 154 143 137 131 124 123 113 96 91 86 68 61 76 74 71 66 57 44 91 114 133 136 134 122 132 127 70 37 114 7 15 255 275 276 262 245 257 250 236 252 264 268 276 279 282 282 282
333 332 329 329 329 333 338 334 315 293 279 252 198 218 214 177 149 145 138 136 139 131 116 103 96 91 72 73 100 89 103 129 140 152 151 163 180 175 155 149 142 142 135 130 128 124 110 92 90 70 79 77 74 69 63 52 47 75 64 79 61 78 106 137 114 275 348 304 265 264 266 266 267 269 269 269 272 274 273 269 270 271 274 279 281
330 329 328 326 326 327 331 335 323 308 296 271 198 203 224 247 151 148 143 146 138 125 120 106 104 99 80 80 103 115 97 106 138 151 156 161 166 181 165 142 136 138 138 136 131 123 116 113 107 92 90 88 86 84 77 68 58 78 71 83 90 93 94 88 111 224 257 274 292 290 287 289 291 291 288 285 284 281 282 283 278 276 275 276 280
323 324 323 321 321 321 322 329 330 328 321 288 261 202 187 194 192 152 144 144 134 134 131 132 126 122 122 116 113 109 118 115 119 141 148 149 147 132 118 129 142 153 151 146 131 120 114 109 102 95 89 86 82 82 86 94 85 86 100 94 91 116 186 96 14 291 305 300 299 293 291 290 295 299 298 298 297 295 291 292 293 289 285 282 278
314 312 311 311 312 314 316 318 323 320 332 337 299 282 193 186 189 180 169 156 149 140 153 153 136 134 137 137 134 134 123 123 88 101 130 125 122 123 127 132 156 140 130 128 123 121 127 120 112 107 97 93 87 79 69 68 91 102 100 105 120 142 31 12 305 325 301 292 291 296 298 303 300 299 303 307 306 306 301 298 293 291 291 290 286
303 299 298 299 302 304 307 306 310 319 316 316 318 291 268 198 182 183 174 172 160 152 159 159 155 150 144 146 149 142 139 115 115 95 109 121 125 129 127 125 119 114 108 109 114 103 92 104 113 110 106 104 106 102 90 84 89 94 98 117 213 30 10 344 327 318 306 303 305 305 302 303 305 304 310 307 302 295 290 292 293 292 289 287 285
291 287 288 288 289 293 295 298 297 302 311 299 269 256 265 261 217 175 192 183 177 166 161 162 154 149 149 155 154 153 139 133 126 127 131 125 120 117 119 117 106 86 88 92 95 105 111 110 112 118 122 130 128 109 105 101 97 100 105 224 31 25 351 340 327 315 313 313 309 304 309 313 309 314 308 300 296 300 304 300 299 296 296 294 293
282 278 274 275 276 276 279 283 293 303 287 276 277 252 230 240 305 269 195 183 186 179 166 166 164 157 150 149 147 147 152 153 153 156 157 144 134 128 117 109 109 108 107 119 119 116 119 120 103 90 92 83 88 102 116 149 148 145 108 63 43 17 4 349 339 315 309 309 310 309 309 312 311 305 298 302 300 301 303 299 295 294 296 295 293
274 274 274 271 268 266 267 268 273 275 276 261 266 268 244 232 222 234 255 232 155 251 222 176 162 147 137 141 146 146 156 167 170 166 162 148 145 144 136 138 142 141 134 135 130 122 118 117 125 129 133 133 135 129 113 96 97 92 66 63 54 63 25 223 241 272 292 305 297 306 309 304 299 302 300 295 295 296 297 294 292 291 291 294 291
273 270 270 268 263 258 258 261 260 263 265 264 198 233 237 225 210 233 171 54 323 244 187 205 166 164 147 147 143 159 160 184 206 183 165 160 151 145 146 147 144 141 129 125 123 129 131 133 129 138 137 133 136 137 129 125 99 100 90 25 18 352 330 342 331 320 314 304 299 310 313 309 302 299 295 295 296 299 300 296 291 289 290 288 286
277 271 264 258 258 258 255 253 250 247 248 257 243 158 114 221 279 239 215 186 184 171 217 216 213 185 151 177 175 172 198 209 145 149 150 147 143 136 131 129 124 123 131 133 131 133 139 140 147 147 153 159 157 145 130 108 91 81 81 63 327 349 337 320 313 313 311 300 298 307 307 303 297 298 299 298 299 297 296 291 290 290 289 287 289
274 272 267 259 255 260 262 262 257 248 244 242 233 219 169 135 115 102 283 225 224 206 203 240 317 194 187 171 224 318 56 125 147 154 144 139 130 125 125 123 124 129 133 126 131 139 147 151 146 150 148 152 131 103 92 93 68 43 31 355 339 324 312 304 316 315 302 297 293 305 304 299 298 300 298 298 297 297 297 293 290 290 288 289 289
266 265 267 270 265 258 254 255 259 257 244 230 226 210 185 174 146 67 69 175 197 208 232 229 236 244 240 243 177 114 127 145 146 145 143 137 135 133 131 131 135 140 150 142 138 150 155 152 154 150 147 135 108 104 106 89 79 24 355 339 336 333 321 317 327 306 300 296 299 311 310 305 303 301 298 296 295 293 294 297 296 294 292 290 288
258 257 258 260 262 263 259 251 247 249 246 227 210 201 185 174 182 159 90 64 92 105 111 110 163 237 219 215 214 184 158 154 148 146 145 140 136 135 134 135 138 140 138 148 146 145 147 148 148 144 145 129 134 135 116 95 62 14 346 333 324 326 319 320 299 285 288 287 304 306 303 304 304 302 299 297 296 296 297 296 296 296 294 293 294
254 251 250 249 253 257 256 252 242 239 244 234 209 193 195 198 173 155 148 155 100 78 76 92 116 119 149 174 164 149 151 151 149 144 140 138 134 131 128 125 123 146 165 146 143 144 144 149 147 149 143 137 138 132 123 91 40 354 331 318 317 319 316 313 300 296 294 295 312 318 312 310 312 308 305 302 299 297 297 298 300 300 300 299 299
254 246 237 237 248 252 253 256 252 243 237 232 213 195 197 198 179 174 175 167 158 161 126 42 89 127 136 145 146 161 149 142 140 139 137 137 135 131 124 126 133 141 147 151 142 144 147 149 152 148 149 145 138 128 100 66 11 342 326 321 319 319 316 310 301 298 297 305 319 323 326 318 314 311 306 304 303 303 303 304 303 301 300 298 296
259 252 242 223 222 237 245 245 247 243 234 230 224 205 183 175 178 183 169 154 144 127 110 119 58 14 77 73 117 136 136 135 139 141 141 141 142 144 143 148 144 149 149 150 147 138 143 147 146 147 143 140 134 125 100 37 336 318 328 326 313 314 310 303 303 306 296 299 323 326 323 321 319 311 308 304 302 301 305 306 305 302 297 296 298
251 245 238 232 222 222 231 237 236 235 235 230 227 216 192 181 181 190 187 163 152 153 138 124 119 101 92 107 133 132 139 133 136 138 142 147 155 160 144 145 145 142 148 145 144 143 144 145 146 142 142 136 132 113 85 344 322 312 307 304 312 298 297 305 308 308 309 327 330 326 320 316 312 308 306 306 307 308 310 309 305 299 297 296 296
247 235 230 223 219 218 222 229 231 227 228 228 229 219 191 187 184 195 191 190 171 149 143 151 158 158 148 135 153 145 125 113 109 110 125 143 168 154 135 132 137 142 142 142 145 148 143 139 146 142 136 130 120 101 49 330 309 307 315 312 298 289 282 279 261 266 292 322 327 327 323 320 317 315 313 310 308 308 308 307 305 304 302 301 302
246 229 220 209 207 214 213 217 224 223 220 218 216 209 196 184 185 198 196 192 168 156 154 159 160 175 159 145 145 136 129 137 150 153 157 164 157 140 134 135 137 136 138 140 143 143 138 140 140 138 135 124 112 94 2 319 308 313 317 305 296 301 292 296 318 323 327 334 328 329 327 323 319 316 315 312 312 312 308 305 304 304 303 303 302
267 233 207 203 197 200 200 205 210 214 216 215 215 209 192 185 184 186 190 183 175 174 165 163 165 155 147 153 141 148 152 152 154 156 154 149 141 135 135 135 137 140 144 144 142 138 140 141 145 143 135 119 89 37 351 297 311 316 304 296 306 306 297 303 327 325 330 333 328 330 328 324 320 317 315 314 317 317 311 308 305 303 299 297 297
306 240 174 185 189 191 196 200 206 215 212 210 213 214 206 184 174 173 178 178 174 169 166 165 156 143 191 185 164 157 148 148 143 143 141 138 134 132 135 136 138 140 142 140 141 141 143 146 147 140 134 126 132 174 289 307 316 310 304 302 299 306 306 310 314 311 318 323 328 328 326 323 320 317 315 320 317 313 314 311 308 305 302 299 297
358 43 139 163 175 174 182 188 202 210 214 208 209 209 207 176 163 165 160 161 152 145 138 126 127 160 156 163 164 145 137 134 135 135 135 133 134 134 131 131 136 141 144 143 143 145 145 145 146 145 135 134 147 300 312 325 321 310 308 317 320 313 312 320 324 321 320 325 327 326 322 317 311 304 302 304 320 323 316 313 312 308 305 302 301
21 44 88 148 153 167 174 183 175 179 194 200 206 197 187 168 151 142 140 146 139 134 124 116 107 121 134 161 144 133 128 130 129 128 126 129 128 127 130 131 134 135 134 134 140 144 148 147 146 143 135 106 54 349 347 339 325 309 315 326 318 313 310 317 319 315 322 323 320 316 311 309 310 314 314 316 322 320 316 313 313 312 309 307 305
37 43 54 69 74 81 94 124 129 147 166 158 159 159 162 157 146 147 139 135 136 139 135 132 130 141 153 152 143 134 126 128 131 126 121 119 121 126 124 121 121 123 124 123 123 128 139 143 144 121 109 140 123 329 329 331 308 303 322 324 317 319 313 321 325 325 321 317 312 309 309 310 310 312 316 318 321 320 320 318 315 313 312 311 309
38 45 52 61 68 83 84 91 100 103 105 106 115 117 137 143 140 133 134 132 125 123 124 127 126 132 183 156 143 127 120 114 109 111 115 119 121 121 122 123 125 128 125 121 118 125 128 125 121 123 147 134 118 314 338 358 334 324 0 342 327 325 328 325 317 315 311 306 304 305 307 312 316 317 320 321 320 321 321 322 319 314 313 313 313
34 41 47 54 63 69 72 75 86 109 118 113 117 121 117 115 119 119 117 117 122 125 128 126 114 108 207 129 109 102 105 107 105 102 104 107 110 113 118 125 124 127 127 128 126 120 108 103 120 123 128 97 57 11 44 42 353 24 6 349 324 317 314 312 312 308 305 300 300 302 303 305 308 314 310 313 321 321 319 317 316 316 314 313 312
44 43 39 52 56 62 63 72 81 93 104 107 106 101 107 105 110 109 106 105 108 108 108 115 116 121 136 106 102 101 100 100 105 102 97 94 102 113 117 121 122 121 118 114 116 117 110 103 89 82 69 17 76 68 34 21 7 6 6 337 331 321 323 322 314 305 302 300 296 293 297 301 305 315 319 323 327 329 326 321 320 315 316 317 316
54 56 52 52 57 58 59 61 67 70 84 89 91 92 94 100 110 117 122 122 117 107 115 107 100 108 112 98 94 95 93 94 96 99 101 107 111 113 112 118 124 124 117 113 109 98 95 92 89 81 68 43 35 49 44 14 3 346 344 334 334 336 323 319 309 303 304 305 295 287 288 294 304 314 321 325 328 330 329 330 326 326 325 323 323
55 58 61 57 57 54 58 59 65 72 75 78 86 94 102 106 109 112 115 108 86 75 83 96 103 104 101 96 96 98 101 104 107 108 110 111 111 110 109 100 97 108 119 109 101 97 99 86 77 63 46 36 39 34 27 15 349 348 337 328 331 327 322 321 314 307 308 301 293 290 292 303 311 319 325 330 332 332 332 330 331 330 329 331 331
40 53 63 65 68 67 67 66 66 69 67 70 76 84 86 92 92 89 85 79 76 72 72 75 85 94 104 105 104 108 108 108 107 110 111 113 110 112 110 107 103 98 101 101 102 106 103 95 77 60 45 40 38 34 16 4 349 341 337 332 328 326 325 324 315 310 315 313 299 286 291 299 303 320 341 344 340 337 336 337 335 335 337 337 339
45 41 53 60 60 62 66 71 69 65 70 74 80 74 69 71 68 67 76 78 80 80 78 80 86 87 90 96 103 107 106 108 110 109 107 108 111 112 114 111 106 102 98 102 108 106 94 84 74 59 44 46 41 32 12 357 351 345 332 328 329 332 332 333 329 325 322 317 292 278 291 306 311 316 329 350 349 346 342 335 339 341 343 346 346